Simultaneous Nadir Overpasses (SNOs) Predictions

Prediction of SNOs between METOP-C and LANDSAT-8 Satellite Orbit:

Table of predicted SNOs for the next 14.0 days since TLE Epoch: 9/5/2025
Index Date (METOP-C) Time (METOP-C) Lat,Lon (METOP-C) SZA (METOP-C ) Date (LANDSAT-8) Time (LANDSAT-8) Lat,Lon (LANDSAT-8) SZA (LANDSAT-8 ) Distance(km) Time Diff (sec)
1 09/07/2025 01:20:25 81.11,-160.33 77.19 09/07/2025 01:20:44 81.11,-160.39 77.19 1.15 19
2 09/07/2025 02:11:04 -81.13, 7.71 102.71 09/07/2025 02:10:10 -81.13, 7.54 102.76 3.04 54
3 09/09/2025 20:54:47 81.11, -94.00 78.26 09/09/2025 20:54:58 81.11, -93.94 78.27 1.00 11
4 09/09/2025 21:45:26 -81.13, 74.04 101.64 09/09/2025 21:44:24 -81.13, 74.01 101.67 0.52 62
5 09/12/2025 16:29:09 81.12, -27.38 79.38 09/12/2025 16:29:12 81.12, -27.34 79.39 0.67 3
6 09/12/2025 17:19:48 -81.14, 140.66 100.52 09/12/2025 17:18:38 -81.14, 140.63 100.55 0.53 70
7 09/15/2025 11:12:53 -81.08,-129.18 99.65 09/15/2025 11:14:01 -81.09,-128.99 99.60 3.24 68
8 09/15/2025 12:03:31 81.12, 39.16 80.50 09/15/2025 12:03:26 81.11, 39.03 80.48 2.36 5
9 09/18/2025 06:47:13 -81.10, -62.35 98.49 09/18/2025 06:48:13 -81.09, -62.46 98.48 1.85 60



Historial Predications of SNOs between METOP-C and LANDSAT-8
